Location: Caltech
(34.1382°N, 118.1253°W)
Time: 18:28:00
(UTC-08:00)

BREEZE M DEB (TANK) - Visible Passes

Search period start: 02 December 2016 00:00
Search period end: 12 December 2016 00:00
Orbit: 314 x 13725 km, 49.6° (Epoch: 01 December)

Date Brightness Start Highest point End Pass type
(mag) Time Alt. Az. Time Alt. Az. Time Alt. Az.
02 Dec 8.2 03:43:35 43° WNW 04:21:09 67° N 06:25:09 10° E visible
03 Dec 8.0 01:10:07 79° NE 01:10:07 79° NE 03:05:17 10° ENE visible
03 Dec 8.6 05:27:26 16° WNW 07:08:34 79° NE 08:22:36 10° SE visible
03 Dec 8.6 22:36:39 33° ENE 22:36:39 33° ENE 23:24:56 10° NE visible
04 Dec 8.1 02:53:57 57° WNW 03:12:10 68° NNW 05:25:21 10° E visible
05 Dec 8.2 00:20:26 65° ENE 00:20:26 65° ENE 01:55:16 10° ENE visible
05 Dec 8.4 04:37:45 27° WNW 05:55:44 72° NNE 07:27:32 10° ESE visible
05 Dec 8.8 21:46:55 22° ENE 21:46:55 22° ENE 22:15:24 10° NE visible
06 Dec 8.0 02:04:12 71° NW 02:09:06 72° NNW 04:22:34 10° E visible
06 Dec 8.4 23:30:39 50° ENE 23:30:39 50° ENE 00:44:16 10° NE visible
07 Dec 8.3 03:47:56 39° WNW 04:37:38 67° NNE 06:31:01 10° ESE visible
07 Dec 9.0 20:57:04 13° ENE 20:57:04 13° ENE 21:04:45 10° NE visible
08 Dec 8.1 01:14:21 76° N 01:14:21 76° N 03:16:12 10° ENE visible
08 Dec 8.7 05:31:38 14° WNW 07:16:18 86° NE 08:25:51 10° SE visible
08 Dec 8.6 22:40:46 38° ENE 22:40:46 38° ENE 23:33:47 10° NE visible
09 Dec 8.2 02:58:02 52° WNW 03:23:45 66° N 05:32:31 10° E visible
10 Dec 8.2 00:24:24 67° NE 00:24:24 67° NE 02:06:20 10° ENE visible
10 Dec 8.6 04:41:41 25° WNW 06:08:21 77° NE 07:31:27 10° SE visible
10 Dec 8.8 21:50:45 27° ENE 21:50:45 27° ENE 22:24:25 10° NE visible
11 Dec 8.2 02:08:02 64° NW 02:17:12 68° NNW 04:31:22 10° E visible
